This is the latest recevied weather packets stored in our database for station/object OK4PZ-5. If no packets are shown the sender has not sent any weather packets the latest 10 day(s).
| Time | Temp. | Humidity | Pressure | Rain* | Wind** | Luminosity | Snow |
|---|---|---|---|---|---|---|---|
| 1777131003 | 21.11° C | 21% | 1015 hPa | 0 mm | - | - | - |
| 1777130103 | 21.11° C | 22% | 1015 hPa | 0 mm | - | - | - |
| 1777129202 | 21.67° C | 22% | 1015 hPa | 0 mm | - | - | - |
| 1777127402 | 21.67° C | 23% | 1015 hPa | 0 mm | - | - | - |
| 1777126503 | 21.67° C | 23% | 1015 hPa | 0 mm | - | - | - |
| 1777125602 | 21.11° C | 24% | 1016 hPa | 0 mm | - | - | - |
| 1777124702 | 21.67° C | 22% | 1016 hPa | 0 mm | - | - | - |
| 1777123802 | 21.11° C | 22% | 1016 hPa | 0 mm | - | - | - |
| 1777122902 | 21.67° C | 23% | 1016 hPa | 0 mm | - | - | - |
| 1777122003 | 21.11° C | 23% | 1016 hPa | 0 mm | - | - | - |
| 1777121102 | 20.56° C | 21% | 1016 hPa | 0 mm | - | - | - |
| 1777120202 | 20.56° C | 25% | 1016 hPa | 0 mm | - | - | - |
| 1777119302 | 20.56° C | 26% | 1016 hPa | 0 mm | - | - | - |
| 1777118402 | 19.44° C | 23% | 1016 hPa | 0 mm | - | - | - |
| 1777117502 | 19.44° C | 28% | 1017 hPa | 0 mm | - | - | - |
| 1777116603 | 19.44° C | 31% | 1017 hPa | 0 mm | - | - | - |
| 1777115702 | 18.89° C | 35% | 1017 hPa | 0 mm | - | - | - |
| 1777114802 | 18.89° C | 37% | 1017 hPa | 0 mm | - | - | - |
| 1777113902 | 17.78° C | 39% | 1017 hPa | 0 mm | - | - | - |
| 1777113003 | 17.78° C | 41% | 1017 hPa | 0 mm | - | - | - |
| 1777112102 | 17.22° C | 47% | 1017 hPa | 0 mm | - | - | - |
| 1777111202 | 16.67° C | 50% | 1017 hPa | 0 mm | - | - | - |
| 1777110302 | 16.11° C | 48% | 1017 hPa | 0 mm | - | - | - |
| 1777109403 | 16.11° C | 48% | 1017 hPa | 0 mm | - | - | - |
| 1777108503 | 15.56° C | 54% | 1017 hPa | 0 mm | - | - | - |
* Rain latest hour (hover to see other rain measurements)
** Current wind speed in m/s (hover to see current wind gust speed)